Date,TemperatureHighF,TemperatureAvgF,TemperatureLowF,DewpointHighF,DewpointAvgF,DewpointLowF,HumidityHigh,HumidityAvg,HumidityLow,PressureMaxIn,PressureMinIn,WindSpeedMaxMPH,WindSpeedAvgMPH,GustSpeedMaxMPH,PrecipitationSumIn
2013-1-1,79,69,61,63,61,58,96,78,51,0.00,40.00,14,5,21,0.00
2013-1-2,83,69,60,69,63,59,99,82,47,0.00,40.00,8,4,14,0.00
2013-1-3,84,71,63,69,64,62,99,82,50,0.00,40.00,9,4,18,0.00
2013-1-4,81,70,62,70,66,62,99,87,62,0.00,40.00,7,4,12,0.00
2013-1-5,75,68,65,69,66,64,99,92,76,0.00,40.00,7,4,18,0.00
2013-1-6,82,72,64,72,67,64,100,88,63,0.00,40.00,11,5,18,0.01
2013-1-7,75,70,66,70,68,65,99,92,77,0.00,40.00,9,5,13,0.00
2013-1-8,84,74,68,72,69,67,99,86,57,0.00,40.00,13,6,20,0.00
2013-1-9,83,75,71,71,69,68,98,83,63,0.00,40.00,14,8,22,0.00
2013-1-10,81,73,67,69,66,63,96,80,56,0.00,40.00,16,8,26,0.00
2013-1-11,81,72,66,70,67,65,98,84,63,0.00,40.00,13,6,20,0.00
2013-1-12,81,73,67,69,67,63,95,82,57,0.00,40.00,11,6,19,0.03
2013-1-13,82,72,66,68,65,62,97,81,52,0.00,40.00,13,6,21,0.01
2013-1-14,81,72,64,68,64,60,98,81,52,0.00,40.00,11,5,18,0.01
2013-1-15,77,70,65,70,66,64,98,89,69,0.00,40.00,9,4,15,0.02
2013-1-16,82,71,62,69,66,61,98,84,57,0.00,40.00,11,4,15,0.01
2013-1-17,79,70,59,71,64,52,98,84,63,0.00,40.00,19,7,30,0.01
2013-1-18,72,61,52,59,52,45,89,73,56,0.00,40.00,12,7,19,0.00
2013-1-19,73,66,61,67,63,58,98,91,77,0.00,40.00,9,4,14,0.03
2013-1-20,81,69,60,68,64,60,99,85,58,0.00,40.00,9,4,14,0.01
2013-1-21,81,70,63,71,65,62,99,85,56,0.00,40.00,10,4,17,0.00
2013-1-22,76,65,58,62,57,53,99,77,52,0.00,40.00,14,8,22,0.00
2013-1-23,75,64,57,57,54,51,93,74,43,0.00,40.00,11,6,18,0.00
2013-1-24,75,63,53,56,50,41,94,67,32,0.00,40.00,8,5,16,0.00
2013-1-25,77,64,53,59,54,51,96,76,48,0.00,40.00,9,6,13,0.00
2013-1-26,79,65,55,61,55,52,97,75,39,0.00,40.00,8,5,13,0.00
2013-1-27,80,68,58,62,58,55,95,75,43,0.00,40.00,11,6,20,0.00
2013-1-28,81,71,62,66,62,59,96,77,49,0.00,40.00,13,7,20,0.00
2013-1-29,82,72,63,70,66,62,99,83,61,0.00,40.00,14,6,21,0.00
2013-1-30,81,72,64,67,64,62,97,79,54,0.00,40.00,15,8,25,0.00
2013-1-31,68,63,54,66,53,43,94,71,58,0.00,40.00,13,8,24,0.00
2013-2-1,72,59,47,53,46,37,79,62,49,0.00,40.00,14,10,23,0.00
2013-2-2,75,62,51,56,47,37,95,61,39,0.00,40.00,9,6,18,0.00
2013-2-3,74,60,52,55,48,31,97,70,21,0.00,40.00,12,6,19,0.00
2013-2-4,75,60,47,57,47,40,96,69,30,0.00,40.00,11,5,22,0.00
2013-2-5,81,65,51,62,55,49,97,75,36,0.00,40.00,7,4,13,0.00
2013-2-6,82,68,57,65,61,57,99,81,49,0.00,40.00,9,4,14,0.00
2013-2-7,83,71,60,66,62,57,99,76,42,0.00,40.00,10,5,16,0.00
2013-2-8,83,71,61,69,65,56,99,83,55,0.00,40.00,11,6,18,0.00
2013-2-9,79,68,59,65,61,56,99,80,54,0.00,40.00,11,7,19,0.00
2013-2-10,75,68,61,63,61,59,96,78,62,0.00,40.00,14,8,23,0.00
2013-2-11,80,70,61,65,63,60,98,81,58,0.00,40.00,12,7,20,0.00
2013-2-12,86,72,61,70,64,61,100,80,44,0.00,40.00,10,5,17,0.00
2013-2-13,86,74,65,72,68,65,100,82,53,0.00,40.00,14,8,24,0.00
2013-2-14,81,68,61,72,66,60,100,94,69,0.00,40.00,20,7,43,1.77
2013-2-15,71,65,62,66,63,60,99,94,71,0.00,40.00,11,5,20,0.79
2013-2-16,72,64,53,63,56,45,99,79,44,0.00,40.00,18,10,39,0.02
2013-2-17,57,50,44,45,31,20,79,49,28,0.00,40.00,20,11,36,0.00
2013-2-18,69,57,45,55,42,27,94,58,41,0.00,40.00,14,9,26,0.00
2013-2-19,80,68,55,66,60,54,98,78,52,0.00,40.00,13,6,19,0.00
2013-2-20,80,70,61,66,63,58,100,82,47,0.00,40.00,9,4,14,0.01
2013-2-21,82,72,62,68,64,62,100,81,52,0.00,40.00,10,5,16,0.00
2013-2-22,82,74,66,71,68,65,99,83,62,0.00,40.00,13,8,19,0.00
2013-2-23,86,75,67,72,69,66,99,83,51,0.00,40.00,12,7,24,0.14
2013-2-24,89,77,68,75,68,63,100,79,44,0.00,40.00,8,5,18,0.04
2013-2-25,84,74,67,73,69,65,100,85,54,0.00,40.00,10,5,19,0.01
2013-2-26,85,76,71,73,70,68,99,83,56,0.00,40.00,17,9,30,0.01
2013-2-27,74,69,64,72,64,60,99,86,62,0.00,40.00,9,5,15,0.79
2013-2-28,70,63,59,63,55,44,98,76,41,0.00,40.00,10,7,18,0.67
2013-3-1,63,60,56,58,51,46,91,73,57,0.00,40.00,9,6,19,0.00
2013-3-2,63,57,49,49,42,34,78,60,37,0.00,40.00,21,9,30,0.00
2013-3-3,61,53,46,47,41,36,88,67,44,0.00,40.00,16,8,23,0.00
2013-3-4,68,54,41,49,37,30,88,58,26,0.00,40.00,13,6,21,0.00
2013-3-5,79,62,50,56,52,47,97,73,33,0.00,40.00,9,4,17,0.00
2013-3-6,77,62,49,61,50,28,99,69,26,0.00,40.00,19,10,30,0.00
2013-3-7,70,56,44,55,43,35,98,63,35,0.00,40.00,11,6,17,0.00
2013-3-8,76,61,48,55,47,36,99,68,23,0.00,40.00,10,6,15,0.00
2013-3-9,75,63,50,59,53,49,98,75,43,0.00,40.00,12,6,19,0.00
2013-3-10,76,67,57,60,56,52,96,70,44,0.00,40.00,14,7,24,0.00
2013-3-11,78,69,62,62,60,55,96,74,45,0.00,40.00,13,8,19,0.00
2013-3-12,80,70,61,67,64,60,98,81,59,0.00,40.00,16,7,25,0.00
2013-3-13,75,64,54,65,53,42,97,72,34,0.00,40.00,12,8,22,0.00
2013-3-14,72,59,50,56,44,34,94,64,27,0.00,40.00,12,8,20,0.00
2013-3-15,73,59,47,56,48,42,96,70,33,0.00,40.00,10,6,21,0.00
2013-3-16,77,64,50,60,53,48,100,73,36,0.00,40.00,10,4,17,0.00
2013-3-17,77,66,56,62,57,55,99,76,49,0.00,40.00,12,6,21,0.00
2013-3-18,80,69,61,69,64,60,100,86,59,0.00,40.00,13,7,21,1.78
2013-3-19,79,71,66,69,67,65,100,87,64,0.00,40.00,13,4,29,1.72
2013-3-20,83,72,62,71,64,57,100,81,51,0.00,40.00,15,5,26,0.01
2013-3-21,72,65,59,63,52,36,99,69,27,0.00,40.00,11,7,20,0.01
2013-3-22,76,68,58,69,61,58,100,81,55,0.00,40.00,12,6,21,0.03
2013-3-23,89,77,70,74,69,64,100,78,44,0.00,40.00,13,6,23,0.05
2013-3-24,88,78,71,74,71,67,100,80,52,0.00,40.00,20,11,34,0.17
2013-3-25,76,71,59,73,60,44,100,72,37,0.00,40.00,14,8,23,0.17
2013-3-26,65,58,48,46,39,32,69,51,34,0.00,40.00,19,13,34,0.00
2013-3-27,66,54,44,41,36,32,85,55,29,0.00,40.00,13,9,22,0.00
2013-3-28,73,66,56,50,43,36,78,47,26,0.00,40.00,11,5,20,0.00
2013-3-29,76,62,50,57,50,46,97,68,36,0.00,40.00,10,6,18,0.00
2013-3-30,76,66,55,59,53,47,98,69,37,0.00,40.00,10,6,17,0.00
2013-3-31,81,69,57,66,59,-100,100,78,49,0.00,40.00,12,7,23,0.00
2013-4-1,87,74,63,72,64,58,100,76,40,0.00,40.00,14,7,23,0.00
2013-4-2,86,73,63,68,64,60,100,78,41,0.00,40.00,9,6,23,0.00
2013-4-3,84,74,66,71,66,63,100,79,50,0.00,40.00,13,7,28,0.00
2013-4-4,86,74,67,71,69,65,100,87,55,0.00,40.00,16,7,25,0.13
2013-4-5,70,68,63,69,66,58,100,95,85,0.00,40.00,12,8,20,0.62
2013-4-6,79,67,57,63,59,56,97,78,55,0.00,40.00,12,9,25,0.11
2013-4-7,79,71,63,65,62,59,99,77,57,0.00,40.00,13,6,19,0.00
2013-4-8,83,72,62,66,61,52,98,72,34,0.00,40.00,11,6,18,0.00
2013-4-9,81,73,66,70,66,62,99,81,54,0.00,40.00,12,7,21,0.00
2013-4-10,84,76,67,72,69,66,98,80,59,0.00,40.00,14,9,24,0.00
2013-4-11,86,78,72,74,71,69,96,80,58,0.00,40.00,17,11,25,0.01
2013-4-12,89,80,75,75,73,70,95,81,55,0.00,40.00,13,7,21,0.03
2013-4-13,86,76,70,75,72,69,99,89,65,0.00,40.00,12,6,20,1.07
2013-4-14,88,79,71,76,72,69,100,81,53,0.00,40.00,13,8,21,0.46
2013-4-15,90,77,68,74,71,67,100,84,50,0.00,40.00,19,6,33,1.62
2013-4-16,87,78,71,75,72,71,99,82,61,0.00,40.00,13,8,20,0.98
2013-4-17,84,77,71,71,68,63,97,75,53,0.00,40.00,11,7,19,0.00
2013-4-18,88,78,71,72,69,66,98,76,51,0.00,40.00,13,8,21,0.00
2013-4-19,88,80,74,74,71,67,93,74,52,0.00,40.00,15,9,25,0.00
2013-4-20,90,78,72,75,72,67,97,82,48,0.00,40.00,21,6,38,0.07
2013-4-21,86,76,69,72,70,68,98,83,58,0.00,40.00,13,7,20,0.07
2013-4-22,85,74,69,71,69,66,98,86,54,0.00,40.00,14,6,29,0.08
2013-4-23,83,74,66,70,65,61,99,76,52,0.00,40.00,14,9,24,0.08
2013-4-24,84,74,63,66,63,60,97,72,46,0.00,40.00,11,6,18,0.00
2013-4-25,84,75,66,67,63,59,97,71,46,0.00,40.00,11,6,19,0.00
2013-4-26,83,74,64,68,64,60,97,74,46,0.00,40.00,15,7,23,0.00
2013-4-27,82,75,66,68,64,58,94,71,44,0.00,40.00,13,8,25,0.00
2013-4-28,83,75,68,67,62,-100,91,68,47,0.00,40.00,13,8,24,0.00
2013-4-29,84,74,67,71,68,66,96,82,60,0.00,40.00,13,7,21,0.01
2013-4-30,84,75,70,72,69,67,99,84,57,0.00,40.00,14,4,25,0.01
2013-5-1,85,74,69,74,70,67,99,88,55,0.00,40.00,10,5,21,1.02
2013-5-2,79,71,68,72,69,68,99,94,78,0.00,40.00,11,6,20,0.29
2013-5-3,87,74,67,70,68,65,99,83,50,0.00,40.00,11,6,21,0.28
2013-5-4,87,75,66,70,67,65,99,78,48,0.00,40.00,13,7,27,0.07
2013-5-5,80,72,64,67,62,52,98,75,39,0.00,40.00,14,7,24,0.05
2013-5-6,82,70,58,67,61,56,96,74,46,0.00,40.00,8,5,16,0.04
2013-5-7,83,70,61,63,59,55,98,73,42,0.00,40.00,11,6,21,0.05
2013-5-8,85,72,60,67,59,53,97,68,34,0.00,40.00,7,5,15,0.03
2013-5-9,89,75,62,74,65,60,97,75,41,0.00,40.00,10,4,18,0.02
2013-5-10,89,77,72,75,68,-100,99,81,49,0.00,40.00,12,6,40,0.49
2013-5-11,89,79,71,77,72,66,100,82,47,0.00,40.00,15,6,22,0.46
2013-5-12,89,78,71,76,70,-100,99,82,50,0.00,40.00,11,5,23,0.07
2013-5-13,84,77,69,72,69,65,99,79,55,0.00,40.00,11,6,19,0.09
2013-5-14,82,74,65,68,61,56,94,67,42,0.00,40.00,13,8,22,0.01
2013-5-15,82,73,64,65,62,57,94,70,43,0.00,40.00,13,6,22,0.00
2013-5-16,85,68,65,66,41,-100,95,68,41,0.00,40.00,11,6,17,0.00
2013-5-17,87,75,67,73,61,-100,97,79,48,0.00,40.00,11,5,19,0.00
2013-5-18,88,78,70,73,71,68,99,80,52,0.00,40.00,13,5,22,0.19
2013-5-19,88,78,70,72,69,64,99,76,48,0.00,40.00,11,6,19,0.01
2013-5-20,83,75,70,77,71,68,99,88,66,0.00,40.00,13,5,23,0.00
2013-5-21,87,76,68,72,69,67,98,81,56,0.00,40.00,15,7,23,0.02
2013-5-22,90,76,71,74,71,69,99,86,51,0.00,40.00,8,4,23,0.59
2013-5-23,91,80,70,76,71,65,99,77,43,0.00,40.00,9,5,16,0.26
2013-5-24,93,81,70,75,70,63,99,74,38,0.00,40.00,9,5,17,0.01
2013-5-25,86,79,71,74,68,64,96,72,48,0.00,40.00,14,8,22,0.00
2013-5-26,86,76,65,68,64,62,95,71,46,0.00,40.00,12,7,22,0.00
2013-5-27,85,76,66,72,68,64,94,76,58,0.00,40.00,15,9,22,0.00
2013-5-28,84,77,73,74,72,69,95,86,65,0.00,40.00,15,9,24,0.56
2013-5-29,81,75,71,74,71,68,97,89,70,0.00,40.00,14,8,28,0.05
2013-5-30,83,77,71,75,71,68,97,84,67,0.00,40.00,19,11,32,0.02
2013-5-31,84,77,74,75,73,72,97,89,70,0.00,40.00,14,8,22,0.02
2013-6-1,86,77,73,77,74,72,98,92,68,0.00,40.00,11,6,22,0.02
2013-6-2,88,78,72,77,72,-100,99,87,58,0.00,40.00,12,4,23,0.01
2013-6-3,88,79,73,76,73,71,99,84,57,0.00,40.00,11,5,17,0.36
2013-6-4,86,79,75,76,74,70,98,86,59,0.00,40.00,10,4,16,0.09
2013-6-5,84,80,77,77,76,74,95,89,72,0.00,40.00,9,6,15,0.19
2013-6-6,88,79,74,78,74,69,98,86,64,0.00,40.00,21,11,47,2.94
2013-6-7,87,77,74,77,74,72,98,91,65,0.00,40.00,12,6,20,1.84
2013-6-8,83,77,74,79,75,73,99,95,83,0.00,40.00,10,4,19,0.99
2013-6-9,88,82,76,76,74,70,98,79,58,0.00,40.00,13,8,22,0.08
2013-6-10,89,83,78,77,74,72,93,76,59,0.00,40.00,12,8,18,0.00
2013-6-11,88,83,79,78,76,71,95,80,59,0.00,40.00,13,6,23,0.13
2013-6-12,89,81,77,78,75,67,96,85,60,0.00,40.00,15,3,23,0.13
2013-6-13,86,78,74,77,74,71,98,87,65,0.00,40.00,9,3,26,0.99
2013-6-14,92,81,75,76,73,68,98,80,46,0.00,40.00,9,5,24,0.03
2013-6-15,91,83,75,76,73,69,98,75,49,0.00,40.00,10,4,14,0.01
2013-6-16,91,84,78,77,74,70,95,74,50,0.00,40.00,10,6,17,0.00
2013-6-17,92,84,79,78,74,70,94,74,50,0.00,40.00,11,5,19,0.00
2013-6-18,92,85,79,79,74,68,96,73,47,0.00,40.00,11,5,19,0.00
2013-6-19,90,82,76,77,74,69,94,77,53,0.00,40.00,10,5,20,0.00
2013-6-20,92,82,75,75,72,69,94,74,48,0.00,40.00,10,5,15,0.00
2013-6-22,91,87,79,75,70,68,88,59,47,0.00,40.00,11,8,18,0.02
2013-6-23,90,82,77,76,73,69,93,74,52,0.00,40.00,12,7,27,0.02
2013-6-24,90,82,76,76,72,69,96,73,53,0.00,40.00,13,7,20,0.00
2013-6-25,89,82,76,76,74,71,95,78,59,0.00,40.00,13,6,20,0.00
2013-6-26,91,82,76,77,74,70,97,78,52,0.00,40.00,11,5,19,0.00
2013-6-27,89,81,77,78,75,70,97,83,53,0.00,40.00,9,3,19,0.01
2013-6-28,93,82,74,78,73,68,98,79,45,0.00,40.00,10,4,20,0.03
2013-6-29,93,80,75,78,74,70,98,85,48,0.00,40.00,10,4,20,0.79
2013-6-30,87,79,75,77,74,70,97,87,63,0.00,40.00,14,6,34,1.68
2013-7-1,90,80,75,77,74,69,97,84,58,0.00,40.00,15,6,31,1.23
2013-7-2,86,79,75,78,75,73,97,88,69,0.00,40.00,10,4,22,0.48
2013-7-3,88,81,76,76,74,71,97,81,59,0.00,40.00,17,8,27,0.03
2013-7-4,89,82,74,76,73,70,97,76,54,0.00,40.00,17,9,25,0.15
2013-7-5,85,79,74,76,74,72,96,85,71,0.00,40.00,15,7,28,0.44
2013-7-6,89,82,76,76,73,70,95,78,54,0.00,40.00,17,8,26,0.01
2013-7-7,90,83,77,76,73,69,94,75,53,0.00,40.00,16,8,23,0.00
2013-7-8,90,82,76,76,73,65,95,76,45,0.00,40.00,11,6,21,0.00
2013-7-9,87,80,75,76,73,68,97,80,58,0.00,40.00,10,5,21,0.13
2013-7-10,86,78,73,75,73,71,96,87,64,0.00,40.00,10,4,16,0.59
2013-7-11,92,80,75,77,74,70,98,86,52,0.00,40.00,8,3,14,1.06
2013-7-12,90,80,74,78,73,70,98,84,55,0.00,40.00,10,4,16,0.10
2013-7-13,88,77,73,75,73,69,97,90,60,0.00,40.00,14,5,28,1.74
2013-7-14,88,77,71,75,72,69,98,86,54,0.00,40.00,9,5,31,4.68
2013-7-15,88,78,73,74,72,69,98,85,53,0.00,40.00,9,4,19,0.68
2013-7-16,84,80,76,72,69,67,86,70,56,0.00,40.00,14,10,26,0.04
2013-7-17,81,76,73,75,73,71,97,90,71,0.00,40.00,10,5,16,0.35
2013-7-18,86,78,73,74,72,70,96,84,62,0.00,40.00,11,6,26,0.18
2013-7-19,88,80,73,78,74,71,95,82,60,0.00,40.00,11,6,18,0.02
2013-7-20,88,81,76,78,76,70,97,84,57,0.00,40.00,13,5,19,0.00
2013-7-21,89,81,77,78,75,68,97,82,59,0.00,40.00,11,4,26,0.16
2013-7-22,92,83,76,78,74,69,97,76,49,0.00,40.00,8,5,15,0.16
2013-7-23,94,85,78,78,74,68,95,73,44,0.00,40.00,8,4,13,0.00
2013-7-24,93,84,77,77,73,67,96,72,48,0.00,40.00,12,6,19,0.00
2013-7-25,91,83,76,77,74,72,96,78,56,0.00,40.00,10,6,18,0.00
2013-7-26,91,82,76,78,75,71,95,81,55,0.00,40.00,10,6,17,0.01
2013-7-27,90,79,74,77,75,73,97,90,59,0.00,40.00,6,4,28,2.98
2013-7-28,87,80,76,79,75,72,97,87,65,0.00,40.00,10,4,15,0.07
2013-7-29,92,81,76,78,75,71,98,83,52,0.00,40.00,10,4,18,0.01
2013-7-30,91,83,76,78,75,72,97,78,55,0.00,40.00,12,6,20,0.68
2013-7-31,91,84,78,78,75,71,97,76,52,0.00,40.00,13,7,22,0.20
2013-8-1,90,82,77,77,74,70,95,77,52,0.00,40.00,12,6,20,0.00
2013-8-2,90,81,74,76,74,68,97,80,50,0.00,40.00,14,5,25,0.00
2013-8-3,86,79,75,78,76,72,97,90,71,0.00,40.00,8,3,14,0.66
2013-8-4,93,82,77,79,75,71,97,83,52,0.00,40.00,8,3,23,0.02
2013-8-5,89,80,76,80,76,72,98,87,65,0.00,40.00,12,5,25,0.05
2013-8-6,93,81,76,78,75,73,99,84,54,0.00,40.00,11,3,17,0.21
2013-8-7,89,81,76,80,76,73,99,84,60,0.00,40.00,11,4,17,0.85
2013-8-8,91,84,78,77,74,71,95,75,52,0.00,40.00,13,8,23,0.06
2013-8-9,88,82,77,77,73,68,95,77,54,0.00,40.00,16,7,24,0.01
2013-8-10,92,84,77,77,74,69,95,73,48,0.00,40.00,13,8,20,0.01
2013-8-11,92,84,78,77,75,71,95,75,53,0.00,40.00,11,6,18,0.00
2013-8-12,92,83,77,78,74,68,97,78,47,0.00,40.00,11,5,17,0.00
2013-8-13,93,84,78,79,74,69,97,76,47,0.00,40.00,10,5,18,0.00
2013-8-14,93,82,75,79,72,-100,97,77,46,0.00,40.00,12,5,19,0.00
2013-8-15,88,76,76,78,64,-100,96,81,61,0.00,40.00,8,4,12,0.00
2013-8-16,93,84,77,79,74,-100,96,76,52,0.00,40.00,11,5,20,0.00
2013-8-17,93,85,79,79,76,73,96,78,53,0.00,40.00,12,6,20,0.00
2013-8-18,91,83,78,78,74,-100,96,77,56,0.00,40.00,13,7,29,0.04
2013-8-19,92,81,76,77,66,-100,96,75,53,0.00,40.00,13,8,21,0.04
2013-8-20,91,82,76,77,72,-100,98,76,49,0.00,40.00,13,7,21,0.00
2013-8-21,90,82,77,78,76,74,96,83,60,0.00,40.00,15,7,25,0.07
2013-8-22,92,84,76,79,75,72,96,77,56,0.00,40.00,14,7,22,0.17
2013-8-23,92,81,77,79,76,72,97,85,52,0.00,40.00,9,3,19,0.02
2013-8-24,93,82,74,78,74,71,97,79,49,0.00,40.00,11,4,18,0.46
2013-8-25,89,79,74,75,72,-100,97,82,56,0.00,40.00,11,5,19,1.13
2013-8-26,90,79,73,76,74,71,98,86,56,0.00,40.00,11,4,20,0.01
2013-8-27,86,77,72,75,73,71,99,88,66,0.00,40.00,8,4,21,0.16
2013-8-28,87,81,74,75,73,72,96,78,64,0.00,40.00,8,5,14,1.00
2013-8-29,90,81,73,76,73,69,99,80,51,0.00,40.00,10,4,16,0.38
2013-8-30,92,82,75,79,73,67,98,78,44,0.00,40.00,10,4,16,0.00
2013-8-31,93,80,74,76,73,68,96,82,46,0.00,40.00,15,4,23,0.08
2013-9-1,92,80,75,77,73,-100,98,84,50,0.00,40.00,11,3,18,0.02
2013-9-2,94,79,74,79,74,69,99,87,45,0.00,40.00,15,2,28,0.41
2013-9-3,93,79,74,77,74,71,99,86,49,0.00,40.00,8,3,16,0.70
2013-9-4,85,81,77,78,76,75,98,88,73,0.00,40.00,8,4,15,0.02
2013-9-5,92,82,77,78,75,71,98,81,51,0.00,40.00,10,5,18,0.01
2013-9-6,94,84,77,79,75,71,97,78,49,0.00,40.00,9,4,15,0.00
2013-9-7,89,78,74,77,74,71,97,88,64,0.00,40.00,12,4,18,0.60
2013-9-8,90,79,73,76,72,-100,98,83,54,0.00,40.00,14,4,25,0.03
2013-9-9,89,81,74,77,74,70,99,81,55,0.00,40.00,11,5,20,0.03
2013-9-10,78,76,76,74,74,73,95,92,85,0.00,40.00,4,2,10,0.03
2013-9-19,89,81,76,75,74,72,95,81,57,0.00,40.00,9,6,23,0.20
2013-9-20,87,80,73,76,70,63,97,75,45,0.00,40.00,12,6,18,0.03
2013-9-21,90,81,74,75,71,67,96,76,47,0.00,40.00,8,4,17,0.00
2013-9-22,92,81,75,78,72,-100,97,77,47,0.00,40.00,10,5,18,0.00
2013-9-23,86,80,76,79,76,73,98,88,66,0.00,40.00,9,4,21,0.04
2013-9-24,89,80,74,79,75,72,96,85,63,0.00,40.00,9,5,28,0.38
2013-9-25,87,79,74,77,74,70,98,85,57,0.00,40.00,14,5,22,0.07
2013-9-26,89,79,75,79,76,74,99,90,65,0.00,40.00,13,6,29,0.47
2013-9-27,89,80,73,76,72,66,98,80,47,0.00,40.00,11,6,21,0.01
2013-9-28,87,79,73,74,71,68,98,79,54,0.00,40.00,13,6,31,0.44
2013-9-29,89,79,70,75,68,-100,98,75,48,0.00,40.00,11,5,16,0.44
2013-9-30,89,81,74,75,71,66,99,76,49,0.00,40.00,10,4,17,0.00
2013-10-1,81,79,78,73,71,70,86,77,69,0.00,40.00,10,7,18,0.00
2013-10-2,88,81,76,74,72,69,90,74,54,0.00,40.00,13,8,22,0.00
2013-10-3,88,81,76,75,73,70,93,77,58,0.00,40.00,10,6,17,0.00
2013-10-4,89,81,75,75,71,65,96,74,47,0.00,40.00,9,5,15,0.00
2013-10-5,89,80,71,75,71,65,99,77,46,0.00,40.00,10,5,16,0.00
2013-10-6,92,80,72,76,72,67,100,79,45,0.00,40.00,8,4,14,0.01
2013-10-7,89,78,74,77,73,70,99,87,53,0.00,40.00,10,5,18,0.59
2013-10-8,90,80,73,78,72,69,99,80,54,0.00,40.00,10,6,18,0.24
2013-10-9,84,76,71,76,72,69,98,88,67,0.00,40.00,9,6,17,0.02
2013-10-10,87,78,69,72,70,67,99,79,53,0.00,40.00,11,6,18,0.01
2013-10-11,74,72,71,72,71,70,96,95,93,0.00,40.00,4,3,7,0.00
2013-10-12,88,80,70,73,67,62,99,68,43,0.00,40.00,7,4,17,0.00
2013-10-13,86,75,70,73,66,-100,99,79,43,0.00,40.00,9,4,16,0.00
2013-10-22,91,84,76,74,73,71,94,70,54,0.00,40.00,10,7,17,0.00
2013-10-23,85,78,73,75,72,68,99,83,62,0.00,40.00,10,5,18,0.00
2013-10-24,79,74,70,71,63,59,92,70,57,0.00,40.00,11,8,21,0.00
2013-10-25,81,72,65,66,62,59,91,73,48,0.00,40.00,14,8,22,0.00
2013-10-26,84,73,64,65,62,59,95,72,44,0.00,40.00,8,5,16,0.00
2013-10-27,83,71,63,66,61,-100,96,74,48,0.00,40.00,10,5,15,0.00
2013-10-28,85,73,65,69,63,-100,98,77,41,0.00,40.00,10,5,17,0.00
2013-10-29,85,74,66,69,66,62,100,78,51,0.00,40.00,13,6,23,0.00
2013-10-30,84,75,67,70,66,62,100,76,47,0.00,40.00,13,7,22,0.00
2013-10-31,86,77,70,72,69,66,97,78,53,0.00,40.00,12,6,21,0.00
2013-11-1,88,78,70,77,72,70,100,83,55,0.00,40.00,11,4,15,0.00
2013-11-2,89,77,69,76,69,62,100,81,42,0.00,40.00,12,5,23,0.00
2013-11-3,81,71,65,64,58,-100,88,66,48,0.00,40.00,15,10,25,0.00
2013-11-4,79,74,66,66,62,57,78,66,53,0.00,40.00,16,10,28,0.00
2013-11-5,82,77,73,69,66,62,77,69,57,0.00,40.00,18,12,30,0.00
2013-11-6,84,77,70,69,67,64,96,72,53,0.00,40.00,13,8,24,0.00
2013-11-7,85,75,68,72,69,67,100,83,55,0.00,40.00,9,5,14,0.00
2013-11-8,83,73,67,73,70,67,99,90,64,0.00,40.00,15,7,24,0.26
2013-11-9,78,74,73,73,69,-100,97,86,76,0.00,40.00,15,6,25,0.39
2013-11-10,84,77,71,71,69,65,95,79,56,0.00,40.00,11,7,17,0.03
2013-11-11,84,75,68,70,68,66,99,82,57,0.00,40.00,12,6,19,0.00
2013-11-12,84,75,67,70,67,62,99,79,50,0.00,40.00,8,4,24,0.00
2013-11-13,74,70,67,69,61,52,92,74,58,0.00,40.00,17,9,30,0.00
2013-11-14,77,69,63,59,56,52,82,63,48,0.00,40.00,18,6,26,0.00
2013-11-15,79,73,66,67,64,58,86,74,63,0.00,40.00,13,8,22,0.00
2013-11-16,77,72,70,72,67,-100,97,87,70,0.00,40.00,11,4,18,0.13
2013-11-17,86,75,69,74,69,66,99,84,58,0.00,40.00,12,6,19,0.07
2013-11-18,84,75,68,73,70,68,100,86,59,0.00,40.00,5,3,12,0.00
2013-11-19,83,74,70,72,70,68,100,88,62,0.00,40.00,7,4,18,0.00
2013-11-20,87,75,66,74,70,66,100,87,54,0.00,40.00,9,4,13,0.24
2013-11-21,83,75,71,74,72,69,100,90,63,0.00,40.00,12,5,19,0.26
2013-11-22,83,76,70,71,69,66,98,79,58,0.00,40.00,14,8,23,0.05
2013-11-23,83,74,68,72,68,-100,100,85,63,0.00,40.00,11,5,18,0.00
2013-11-24,81,73,67,70,67,64,100,84,60,0.00,40.00,15,7,26,0.06
2013-11-25,76,72,69,68,63,59,83,74,63,0.00,40.00,17,13,26,0.02
2013-11-26,84,76,71,74,71,68,100,86,66,0.00,40.00,15,10,25,0.14
2013-11-27,77,71,57,75,64,52,100,82,55,0.00,40.00,17,10,28,0.63
2013-11-28,74,60,46,58,51,43,91,75,51,0.00,40.00,17,11,29,0.03
2013-11-29,77,68,55,62,58,54,98,74,50,0.00,40.00,15,9,24,0.00
2013-11-30,76,67,59,70,60,-100,100,84,61,0.00,40.00,16,10,23,0.11
2013-12-1,80,68,59,70,65,59,100,94,71,0.00,40.00,12,6,20,0.21
2013-12-2,73,67,60,67,64,60,100,91,68,0.00,40.00,12,6,19,0.01
2013-12-3,79,68,59,66,62,59,100,84,52,0.00,40.00,7,3,11,0.01
2013-12-4,83,72,64,69,65,63,100,83,56,0.00,40.00,10,4,14,0.00
2013-12-5,85,73,64,70,68,64,100,85,56,0.00,40.00,11,5,17,0.00
2013-12-6,85,75,66,72,68,66,100,81,55,0.00,40.00,13,7,19,0.00
2013-12-7,84,72,64,72,66,-100,100,87,55,0.00,40.00,8,4,17,0.00
2013-12-8,84,75,68,70,68,65,99,81,56,0.00,40.00,11,6,19,0.01
2013-12-9,85,75,69,70,67,60,98,78,43,0.00,40.00,13,7,19,0.00
2013-12-10,88,76,67,73,69,66,100,82,50,0.00,40.00,9,4,14,0.00
2013-12-11,86,74,67,73,69,66,100,88,53,0.00,40.00,10,5,15,0.00
2013-12-12,77,69,61,71,65,57,100,88,60,0.00,40.00,16,7,23,0.00
2013-12-13,79,73,60,66,63,59,95,71,57,0.00,40.00,13,9,21,0.00
2013-12-14,83,74,67,71,67,-100,98,83,63,0.00,40.00,13,7,20,0.02
2013-12-15,81,73,68,75,70,66,100,91,73,0.00,40.00,13,6,21,0.01
2013-12-16,74,66,58,66,60,56,94,79,61,0.00,40.00,11,8,21,0.00
2013-12-17,79,65,55,61,58,54,98,80,51,0.00,40.00,11,8,22,0.00
2013-12-18,76,64,56,59,55,50,100,77,45,0.00,40.00,11,6,18,0.00
2013-12-19,78,66,55,61,57,53,96,75,49,0.00,40.00,13,6,18,0.00
2013-12-20,82,76,62,68,66,61,96,73,58,0.00,40.00,12,8,20,0.00
2013-12-21,84,77,70,73,68,-100,99,77,61,0.00,40.00,14,9,23,0.00
2013-12-22,85,76,71,72,70,67,99,83,55,0.00,40.00,15,7,22,0.00
2013-12-23,86,76,69,74,70,68,100,84,56,0.00,40.00,11,6,19,0.00
2013-12-24,82,69,64,73,65,57,100,87,71,0.00,40.00,14,5,22,0.04
2013-12-25,78,72,64,66,64,61,97,78,61,0.00,40.00,15,8,24,0.03
2013-12-26,79,72,67,69,67,65,98,87,68,0.00,40.00,12,4,18,0.00
2013-12-27,83,73,66,71,68,66,100,85,61,0.00,40.00,12,6,20,0.00
2013-12-28,80,73,68,72,68,-100,97,85,71,0.00,40.00,14,7,21,0.00
2013-12-29,81,75,70,73,72,70,100,91,76,0.00,40.00,15,7,27,0.00
2013-12-30,77,71,66,71,68,62,100,90,72,0.00,40.00,10,4,16,0.00
2013-12-31,80,71,64,65,62,58,88,75,57,0.00,40.00,13,9,21,0.00
2014-1-1,82,75,70,71,68,63,98,80,69,0.00,40.00,15,8,20,0.00
2014-1-2,85,74,67,71,68,63,100,83,54,0.00,40.00,16,7,25,0.01